When you browse on this site, cookies collect data to enhance your experience and personalize the content and advertising you see.
Visit our Privacy Policy to learn more. By continuing to use the site, you agree to this use of cookies and data.
  • In Italy
  • List of Countries
  • For 7 days
  • Water Temperature
  • Satellite Maps
  • Weather Map
  • Weather Widgets
  • user-avatar
    Login

    Hourly Weather Perth

    Today, 10 December, Monday

    Time Temperature Precipitation Wind Pressure Humidity
    00:00 +23°C° 0 mm 5 mps 757 mmHg 53%
    01:00 +23°C° 0 mm 5 mps 757 mmHg 55%
    02:00 +21°C° 0 mm 4 mps 757 mmHg 60%
    03:00 +21°C° 0 mm 4 mps 756 mmHg 61%
    04:00 +21°C° 0 mm 4 mps 756 mmHg 62%
    05:00 +20°C° 0 mm 4 mps 756 mmHg 63%
    06:00 +22°C° 0 mm 4 mps 756 mmHg 58%
    07:00 +25°C° 0 mm 3 mps 756 mmHg 52%
    08:00 +25°C° 0 mm 2 mps 757 mmHg 48%
    09:00 +27°C° 0 mm 2 mps 756 mmHg 44%
    10:00 +29°C° 0 mm 3 mps 756 mmHg 40%
    11:00 +31°C° 0 mm 3 mps 756 mmHg 36%
    12:00 +33°C° 0 mm 4 mps 755 mmHg 35%
    13:00 +33°C° 0 mm 5 mps 755 mmHg 34%
    14:00 +33°C° 0 mm 5 mps 755 mmHg 35%
    15:00 +32°C° 0 mm 6 mps 755 mmHg 39%
    16:00 +30°C° 0 mm 6 mps 754 mmHg 43%
    17:00 +29°C° 0 mm 7 mps 754 mmHg 46%
    18:00 +27°C° 0 mm 7 mps 755 mmHg 54%
    19:00 +24°C° 0 mm 7 mps 755 mmHg 62%
    20:00 +22°C° 0 mm 7 mps 755 mmHg 70%
    21:00 +21°C° 0 mm 6 mps 756 mmHg 71%
    22:00 +21°C° 0 mm 6 mps 756 mmHg 72%
    23:00 +20°C° 0 mm 6 mps 756 mmHg 73%

    Tomorrow, 11 December, Tuesday

    Time Temperature Precipitation Wind Pressure Humidity
    00:00 +20°C° 0 mm 5 mps 756 mmHg 75%
    01:00 +19°C° 0 mm 5 mps 756 mmHg 77%
    02:00 +19°C° 0 mm 5 mps 756 mmHg 79%
    03:00 +18°C° 0 mm 4 mps 757 mmHg 82%
    04:00 +17°C° 0 mm 4 mps 757 mmHg 84%
    05:00 +17°C° 0 mm 4 mps 757 mmHg 87%
    06:00 +18°C° 0 mm 4 mps 757 mmHg 79%
    07:00 +20°C° 0 mm 4 mps 757 mmHg 71%
    08:00 +21°C° 0 mm 4 mps 758 mmHg 63%
    09:00 +23°C° 0 mm 4 mps 758 mmHg 55%
    10:00 +26°C° 0 mm 5 mps 758 mmHg 48%
    11:00 +27°C° 0 mm 5 mps 758 mmHg 41%
    12:00 +27°C° 0 mm 6 mps 758 mmHg 41%
    13:00 +27°C° 0 mm 6 mps 757 mmHg 42%
    14:00 +27°C° 0 mm 7 mps 757 mmHg 42%
    15:00 +26°C° 0 mm 6 mps 757 mmHg 46%
    16:00 +24°C° 0 mm 6 mps 757 mmHg 49%
    17:00 +23°C° 0 mm 6 mps 757 mmHg 53%
    18:00 +22°C° 0 mm 6 mps 758 mmHg 60%
    19:00 +21°C° 0 mm 5 mps 758 mmHg 67%
    20:00 +19°C° 0 mm 5 mps 759 mmHg 75%
    21:00 +19°C° 0 mm 4 mps 759 mmHg 78%
    22:00 +19°C° 0 mm 4 mps 759 mmHg 81%
    23:00 +18°C° 0 mm 3 mps 760 mmHg 84%

    Day after tomorrow, 12 December, Wednesday

    Time Temperature Precipitation Wind Pressure Humidity
    00:00 +18°C° 0 mm 3 mps 759 mmHg 86%
    01:00 +18°C° 0 mm 3 mps 759 mmHg 88%
    02:00 +17°C° 0 mm 3 mps 759 mmHg 89%
    03:00 +17°C° 0 mm 3 mps 759 mmHg 90%
    04:00 +17°C° 0 mm 3 mps 759 mmHg 91%
    05:00 +17°C° 0 mm 3 mps 759 mmHg 92%
    06:00 +19°C° 0 mm 3 mps 760 mmHg 82%
    07:00 +20°C° 0 mm 3 mps 760 mmHg 73%
    08:00 +22°C° 0 mm 3 mps 760 mmHg 63%
    09:00 +25°C° 0 mm 3 mps 760 mmHg 57%
    10:00 +26°C° 0 mm 3 mps 760 mmHg 50%
    11:00 +28°C° 0 mm 3 mps 760 mmHg 44%
    12:00 +29°C° 0 mm 4 mps 760 mmHg 41%
    13:00 +30°C° 0 mm 4 mps 759 mmHg 39%
    14:00 +32°C° 0 mm 5 mps 759 mmHg 37%
    15:00 +30°C° 0 mm 5 mps 759 mmHg 38%
    16:00 +30°C° 0 mm 6 mps 759 mmHg 39%
    17:00 +29°C° 0 mm 6 mps 759 mmHg 41%
    18:00 +27°C° 0 mm 6 mps 759 mmHg 45%
    19:00 +26°C° 0 mm 5 mps 759 mmHg 49%
    20:00 +23°C° 0 mm 5 mps 760 mmHg 53%
    21:00 +23°C° 0 mm 5 mps 760 mmHg 54%
    22:00 +23°C° 0 mm 5 mps 760 mmHg 54%
    23:00 +22°C° 0 mm 5 mps 761 mmHg 54%

    13 December, Thursday

    Time Temperature Precipitation Wind Pressure Humidity
    00:00 +21°C° 0 mm 5 mps 760 mmHg 56%
    01:00 +20°C° 0 mm 6 mps 760 mmHg 58%
    02:00 +20°C° 0 mm 6 mps 760 mmHg 60%
    03:00 +19°C° 0 mm 6 mps 760 mmHg 61%
    04:00 +17°C° 0 mm 6 mps 760 mmHg 62%
    05:00 +17°C° 0 mm 6 mps 760 mmHg 64%
    06:00 +19°C° 0 mm 6 mps 761 mmHg 59%
    07:00 +21°C° 0 mm 6 mps 761 mmHg 55%
    08:00 +22°C° 0 mm 6 mps 761 mmHg 50%
    09:00 +26°C° 0 mm 5 mps 761 mmHg 45%
    10:00 +28°C° 0 mm 4 mps 760 mmHg 39%
    11:00 +32°C° 0 mm 4 mps 760 mmHg 33%
    12:00 +34°C° 0 mm 4 mps 759 mmHg 30%
    13:00 +36°C° 0 mm 4 mps 759 mmHg 27%
    14:00 +37°C° 0 mm 4 mps 758 mmHg 24%
    15:00 +37°C° 0 mm 4 mps 757 mmHg 25%
    16:00 +36°C° 0 mm 5 mps 757 mmHg 26%
    17:00 +36°C° 0 mm 5 mps 757 mmHg 27%
    18:00 +34°C° 0 mm 5 mps 757 mmHg 29%
    19:00 +32°C° 0 mm 5 mps 757 mmHg 32%
    20:00 +29°C° 0 mm 5 mps 757 mmHg 34%
    21:00 +28°C° 0 mm 5 mps 756 mmHg 35%
    22:00 +28°C° 0 mm 5 mps 756 mmHg 35%
    23:00 +28°C° 0 mm 4 mps 756 mmHg 35%

    14 December, Friday

    Time Temperature Precipitation Wind Pressure Humidity
    00:00 +28°C° 0 mm 4 mps 756 mmHg 34%
    01:00 +28°C° 0 mm 4 mps 756 mmHg 34%
    02:00 +28°C° 0 mm 4 mps 755 mmHg 34%
    03:00 +27°C° 0.1 mm 4 mps 755 mmHg 35%
    04:00 +27°C° 0.1 mm 4 mps 755 mmHg 36%
    05:00 +26°C° 0.1 mm 3 mps 756 mmHg 37%
    06:00 +28°C° 0.1 mm 4 mps 756 mmHg 33%
    07:00 +30°C° 0.1 mm 4 mps 756 mmHg 28%
    08:00 +32°C° 0.1 mm 4 mps 757 mmHg 24%
    09:00 +34°C° 0 mm 4 mps 757 mmHg 23%
    10:00 +35°C° 0 mm 4 mps 756 mmHg 22%
    11:00 +36°C° 0 mm 4 mps 756 mmHg 20%
    12:00 +37°C° 0.1 mm 4 mps 755 mmHg 21%
    13:00 +40°C° 0.1 mm 4 mps 755 mmHg 21%
    14:00 +41°C° 0.1 mm 4 mps 754 mmHg 21%
    15:00 +40°C° 0 mm 4 mps 753 mmHg 22%
    16:00 +40°C° 0 mm 5 mps 753 mmHg 22%
    17:00 +39°C° 0 mm 5 mps 752 mmHg 23%
    18:00 +36°C° 0 mm 5 mps 752 mmHg 26%
    19:00 +34°C° 0 mm 5 mps 752 mmHg 29%
    20:00 +32°C° 0 mm 5 mps 752 mmHg 32%
    21:00 +32°C° 0.1 mm 5 mps 752 mmHg 35%
    22:00 +30°C° 0.1 mm 5 mps 752 mmHg 37%
    23:00 +29°C° 0.1 mm 5 mps 752 mmHg 40%

    15 December, Saturday

    Time Temperature Precipitation Wind Pressure Humidity
    00:00 +29°C° 0 mm 5 mps 752 mmHg 40%
    01:00 +28°C° 0 mm 5 mps 751 mmHg 40%
    02:00 +28°C° 0 mm 5 mps 751 mmHg 40%
    03:00 +28°C° 0 mm 5 mps 751 mmHg 38%
    04:00 +28°C° 0 mm 5 mps 751 mmHg 37%
    05:00 +28°C° 0 mm 6 mps 751 mmHg 35%
    06:00 +29°C° 0 mm 6 mps 752 mmHg 31%
    07:00 +32°C° 0 mm 6 mps 752 mmHg 27%
    08:00 +33°C° 0 mm 6 mps 752 mmHg 23%
    09:00 +34°C° 0 mm 6 mps 752 mmHg 21%
    10:00 +36°C° 0 mm 6 mps 752 mmHg 19%
    11:00 +38°C° 0 mm 6 mps 751 mmHg 17%
    12:00 +39°C° 0 mm 6 mps 751 mmHg 17%
    13:00 +39°C° 0 mm 7 mps 750 mmHg 17%
    14:00 +40°C° 0 mm 7 mps 750 mmHg 18%
    15:00 +38°C° 0 mm 8 mps 750 mmHg 22%
    16:00 +35°C° 0 mm 9 mps 750 mmHg 26%
    17:00 +33°C° 0 mm 9 mps 750 mmHg 30%
    18:00 +31°C° 0 mm 9 mps 751 mmHg 35%
    19:00 +29°C° 0 mm 9 mps 752 mmHg 40%
    20:00 +27°C° 0 mm 8 mps 752 mmHg 45%
    21:00 +26°C° 0 mm 8 mps 753 mmHg 49%
    22:00 +24°C° 0 mm 8 mps 754 mmHg 53%
    23:00 +23°C° 0 mm 7 mps 754 mmHg 57%
    Show more